TimeEDT,TemperatureF,Dew PointF,Humidity,Sea Level PressureIn,VisibilityMPH,Wind Direction,Wind SpeedMPH,Gust SpeedMPH,PrecipitationIn,Events,Conditions,WindDirDegrees,DateUTC
12:01 AM,48.2,48.2,100,29.87,0.5,SSE,6.9,-,N/A,Fog,Fog,150,2012-03-25 04:01:00
12:12 AM,48.2,48.2,100,29.87,0.2,SSE,5.8,-,N/A,Fog,Fog,150,2012-03-25 04:12:00
12:54 AM,48.9,48.9,100,29.87,0.2,SE,5.8,-,N/A,Fog,Fog,130,2012-03-25 04:54:00
1:54 AM,48.0,48.0,100,29.84,0.2,East,4.6,-,N/A,Fog,Fog,90,2012-03-25 05:54:00
2:54 AM,46.9,46.9,100,29.83,0.2,NE,3.5,-,N/A,Fog,Fog,40,2012-03-25 06:54:00
3:54 AM,46.9,46.9,100,29.82,0.2,SE,4.6,-,N/A,Fog,Fog,140,2012-03-25 07:54:00
4:54 AM,46.9,46.9,100,29.82,0.2,Calm,Calm,-,N/A,Fog,Fog,0,2012-03-25 08:54:00
5:54 AM,46.9,46.9,100,29.81,0.2,Calm,Calm,-,N/A,Fog,Fog,0,2012-03-25 09:54:00
6:54 AM,46.9,46.9,100,29.82,0.2,Calm,Calm,-,N/A,Fog,Fog,0,2012-03-25 10:54:00
7:54 AM,48.0,48.0,100,29.84,0.2,Calm,Calm,-,0.01,Fog,Fog,0,2012-03-25 11:54:00
8:54 AM,48.0,48.0,100,29.85,0.2,NNE,3.5,-,N/A,Fog,Fog,30,2012-03-25 12:54:00
9:42 AM,50.0,50.0,100,29.83,1.0,Variable,4.6,-,N/A,,Mist,0,2012-03-25 13:42:00
9:46 AM,51.8,50.0,94,29.83,3.0,NW,5.8,-,N/A,,Overcast,320,2012-03-25 13:46:00
9:54 AM,51.1,50.0,96,29.84,5.0,NNW,8.1,-,N/A,,Overcast,330,2012-03-25 13:54:00
10:20 AM,51.8,51.8,100,29.84,1.8,NNW,9.2,-,N/A,,Overcast,330,2012-03-25 14:20:00
10:47 AM,51.8,51.8,100,29.84,2.5,NW,6.9,-,N/A,,Overcast,320,2012-03-25 14:47:00
10:54 AM,52.0,51.1,97,29.85,4.0,NW,8.1,-,N/A,,Overcast,320,2012-03-25 14:54:00
11:15 AM,53.6,51.8,94,29.84,10.0,Variable,4.6,-,N/A,,Overcast,0,2012-03-25 15:15:00
11:23 AM,53.6,51.8,94,29.84,10.0,NW,10.4,-,N/A,,Overcast,320,2012-03-25 15:23:00
11:46 AM,55.4,51.8,88,29.84,10.0,NW,9.2,-,N/A,,Overcast,320,2012-03-25 15:46:00
11:54 AM,55.0,50.0,83,29.85,10.0,NW,10.4,-,N/A,,Overcast,320,2012-03-25 15:54:00
12:42 PM,57.2,50.0,77,29.83,10.0,North,4.6,-,N/A,,Overcast,10,2012-03-25 16:42:00
12:54 PM,57.0,50.0,77,29.83,10.0,WNW,6.9,-,N/A,,Overcast,300,2012-03-25 16:54:00
1:05 PM,57.2,50.0,77,29.83,10.0,NW,8.1,-,N/A,,Overcast,320,2012-03-25 17:05:00
1:28 PM,57.2,48.2,72,29.83,10.0,WNW,9.2,-,N/A,,Overcast,300,2012-03-25 17:28:00
1:54 PM,55.9,50.0,80,29.84,10.0,NNW,8.1,-,N/A,,Overcast,330,2012-03-25 17:54:00
2:14 PM,55.4,48.2,77,29.82,10.0,NNW,13.8,-,0.00,Rain,Light Rain,330,2012-03-25 18:14:00
2:54 PM,53.1,50.0,89,29.83,10.0,NNW,10.4,-,0.00,Rain,Light Rain,330,2012-03-25 18:54:00
3:27 PM,51.8,51.8,100,29.82,1.8,NW,11.5,-,0.01,Rain,Light Rain,310,2012-03-25 19:27:00
3:38 PM,51.8,51.8,100,29.82,2.5,WNW,9.2,-,0.01,Rain,Light Rain,300,2012-03-25 19:38:00
3:42 PM,51.8,51.8,100,29.82,3.0,WNW,10.4,-,0.01,Rain,Light Rain,300,2012-03-25 19:42:00
3:49 PM,51.8,51.8,100,29.82,2.0,WNW,9.2,-,0.01,Rain,Light Rain,300,2012-03-25 19:49:00
3:54 PM,52.0,51.1,97,29.83,2.5,NW,8.1,-,0.01,Rain,Light Rain,310,2012-03-25 19:54:00
4:44 PM,51.8,51.8,100,29.82,3.0,NW,9.2,-,0.00,,Overcast,320,2012-03-25 20:44:00
4:54 PM,53.1,52.0,96,29.83,4.0,NW,9.2,-,0.00,,Overcast,320,2012-03-25 20:54:00
5:04 PM,53.6,51.8,94,29.82,5.0,NW,8.1,-,N/A,,Overcast,320,2012-03-25 21:04:00
5:54 PM,53.1,52.0,96,29.83,7.0,WNW,11.5,-,N/A,,Overcast,300,2012-03-25 21:54:00
6:03 PM,53.6,51.8,94,29.83,7.0,NW,12.7,-,N/A,,Overcast,310,2012-03-25 22:03:00
6:54 PM,54.0,52.0,93,29.85,7.0,WNW,8.1,-,N/A,,Overcast,290,2012-03-25 22:54:00
7:17 PM,53.6,51.8,94,29.85,9.0,NW,8.1,-,N/A,,Overcast,320,2012-03-25 23:17:00
7:45 PM,53.6,51.8,94,29.85,10.0,WNW,9.2,-,N/A,,Overcast,300,2012-03-25 23:45:00
7:54 PM,54.0,51.1,90,29.86,10.0,NW,10.4,-,N/A,,Overcast,310,2012-03-25 23:54:00
8:43 PM,53.6,50.0,88,29.86,10.0,NW,12.7,-,N/A,,Overcast,320,2012-03-26 00:43:00
8:54 PM,53.1,50.0,89,29.87,10.0,NW,11.5,-,N/A,,Overcast,320,2012-03-26 00:54:00
9:54 PM,53.1,48.0,83,29.89,10.0,NNW,11.5,-,N/A,,Overcast,330,2012-03-26 01:54:00
10:54 PM,52.0,46.9,83,29.90,10.0,NW,12.7,-,N/A,,Overcast,320,2012-03-26 02:54:00
11:54 PM,51.1,46.9,86,29.89,10.0,NW,17.3,-,N/A,,Overcast,320,2012-03-26 03:54:00